Time,TemperatureF,DewpointF,PressureIn,WindDirection,WindDirectionDegrees,WindSpeedMPH,WindSpeedGustMPH,Humidity,HourlyPrecipIn,Conditions,Clouds,dailyrainin,SoftwareType,DateUTC
2013-02-10 00:05:00,22.3,18.0,30.23,East,84,0.0,0.0,84,0.00,,,0.00,weatherlink.com 1.10,2013-02-10 05:05:00,
2013-02-10 00:21:00,21.6,18.0,30.23,East,84,0.0,0.0,84,0.00,,,0.00,weatherlink.com 1.10,2013-02-10 05:21:00,
2013-02-10 00:35:00,20.8,17.0,30.23,East,83,0.0,0.0,84,0.00,,,0.00,weatherlink.com 1.10,2013-02-10 05:35:00,
2013-02-10 00:50:00,20.5,17.0,30.22,East,84,0.0,0.0,85,0.00,,,0.00,weatherlink.com 1.10,2013-02-10 05:50:00,
2013-02-10 01:06:00,20.1,16.0,30.21,East,83,0.0,0.0,85,0.00,,,0.00,weatherlink.com 1.10,2013-02-10 06:06:00,
2013-02-10 01:21:00,19.7,16.0,30.21,East,83,0.0,0.0,85,0.00,,,0.00,weatherlink.com 1.10,2013-02-10 06:21:00,
2013-02-10 01:36:00,19.4,16.0,30.20,East,84,0.0,0.0,85,0.00,,,0.00,weatherlink.com 1.10,2013-02-10 06:36:00,
2013-02-10 01:51:00,19.1,15.0,30.20,East,84,0.0,0.0,85,0.00,,,0.00,weatherlink.com 1.10,2013-02-10 06:51:00,
2013-02-10 02:06:00,18.9,15.0,30.20,East,83,0.0,0.0,85,0.00,,,0.00,weatherlink.com 1.10,2013-02-10 07:06:00,
2013-02-10 02:21:00,18.8,15.0,30.20,East,84,0.0,0.0,85,0.00,,,0.00,weatherlink.com 1.10,2013-02-10 07:21:00,
2013-02-10 02:36:00,19.0,15.0,30.20,East,84,0.0,0.0,85,0.00,,,0.00,weatherlink.com 1.10,2013-02-10 07:36:00,
2013-02-10 02:52:00,19.2,15.0,30.20,East,83,0.0,0.0,85,0.00,,,0.00,weatherlink.com 1.10,2013-02-10 07:52:00,
2013-02-10 03:07:00,19.3,16.0,30.19,East,83,0.0,0.0,85,0.00,,,0.00,weatherlink.com 1.10,2013-02-10 08:07:00,
2013-02-10 03:21:00,19.5,16.0,30.19,East,83,0.0,0.0,85,0.00,,,0.00,weatherlink.com 1.10,2013-02-10 08:21:00,
2013-02-10 03:36:00,19.2,15.0,30.19,East,83,0.0,0.0,85,0.00,,,0.00,weatherlink.com 1.10,2013-02-10 08:36:00,
2013-02-10 03:51:00,18.6,15.0,30.18,East,83,0.0,0.0,85,0.00,,,0.00,weatherlink.com 1.10,2013-02-10 08:51:00,
2013-02-10 04:06:00,18.5,15.0,30.17,East,84,0.0,0.0,85,0.00,,,0.00,weatherlink.com 1.10,2013-02-10 09:06:00,
2013-02-10 04:21:00,18.5,15.0,30.18,East,84,0.0,0.0,85,0.00,,,0.00,weatherlink.com 1.10,2013-02-10 09:21:00,
2013-02-10 04:36:00,18.7,15.0,30.17,NE,46,0.0,0.0,85,0.00,,,0.00,weatherlink.com 1.10,2013-02-10 09:36:00,
2013-02-10 04:51:00,18.7,15.0,30.17,NE,47,0.0,0.0,85,0.00,,,0.00,weatherlink.com 1.10,2013-02-10 09:51:00,
2013-02-10 05:06:00,18.1,14.0,30.17,NE,46,0.0,0.0,85,0.00,,,0.00,weatherlink.com 1.10,2013-02-10 10:06:00,
2013-02-10 05:21:00,17.9,14.0,30.17,NE,47,0.0,0.0,85,0.00,,,0.00,weatherlink.com 1.10,2013-02-10 10:21:00,
2013-02-10 05:36:00,17.8,14.0,30.16,NE,50,0.0,0.0,85,0.00,,,0.00,weatherlink.com 1.10,2013-02-10 10:36:00,
2013-02-10 05:50:00,17.9,14.0,30.16,ENE,61,0.0,0.0,85,0.00,,,0.00,weatherlink.com 1.10,2013-02-10 10:50:00,
2013-02-10 06:05:00,18.2,14.0,30.16,ENE,71,0.0,1.0,84,0.00,,,0.00,weatherlink.com 1.10,2013-02-10 11:05:00,
2013-02-10 06:20:00,18.4,14.0,30.15,East,100,0.0,3.0,84,0.00,,,0.00,weatherlink.com 1.10,2013-02-10 11:20:00,
2013-02-10 06:36:00,19.1,15.0,30.15,ESE,115,0.0,3.0,84,0.00,,,0.00,weatherlink.com 1.10,2013-02-10 11:36:00,
2013-02-10 06:50:00,19.9,16.0,30.14,East,84,0.0,0.0,85,0.00,,,0.00,weatherlink.com 1.10,2013-02-10 11:50:00,
2013-02-10 07:06:00,20.3,17.0,30.14,ESE,103,0.0,0.0,85,0.00,,,0.00,weatherlink.com 1.10,2013-02-10 12:06:00,
2013-02-10 07:20:00,20.7,17.0,30.14,East,100,0.0,6.0,85,0.00,,,0.00,weatherlink.com 1.10,2013-02-10 12:20:00,
2013-02-10 07:35:00,20.1,16.0,30.13,ENE,68,0.0,3.0,85,0.00,,,0.00,weatherlink.com 1.10,2013-02-10 12:35:00,
2013-02-10 07:51:00,19.8,16.0,30.12,East,101,0.0,0.0,86,0.00,,,0.00,weatherlink.com 1.10,2013-02-10 12:51:00,
2013-02-10 08:05:00,20.0,16.0,30.11,ENE,65,0.0,2.0,85,0.00,,,0.00,weatherlink.com 1.10,2013-02-10 13:05:00,
2013-02-10 08:20:00,20.8,17.0,30.09,ESE,105,0.0,5.0,85,0.00,,,0.00,weatherlink.com 1.10,2013-02-10 13:20:00,
2013-02-10 08:36:00,21.6,18.0,30.09,ENE,70,0.0,3.0,85,0.00,,,0.00,weatherlink.com 1.10,2013-02-10 13:36:00,
2013-02-10 08:51:00,22.7,19.0,30.08,ENE,73,0.0,0.0,85,0.00,,,0.00,weatherlink.com 1.10,2013-02-10 13:51:00,
2013-02-10 09:06:00,23.8,20.0,30.07,NE,37,0.0,4.0,85,0.00,,,0.00,weatherlink.com 1.10,2013-02-10 14:06:00,
2013-02-10 09:21:00,24.6,20.0,30.06,NE,42,0.0,4.0,84,0.00,,,0.00,weatherlink.com 1.10,2013-02-10 14:21:00,
2013-02-10 09:36:00,25.4,21.0,30.05,ESE,117,0.0,4.0,84,0.00,,,0.00,weatherlink.com 1.10,2013-02-10 14:36:00,
2013-02-10 09:51:00,26.1,22.0,30.05,ENE,77,2.0,4.0,83,0.00,,,0.00,weatherlink.com 1.10,2013-02-10 14:51:00,
2013-02-10 10:06:00,26.9,22.0,30.05,East,90,0.0,5.0,83,0.00,,,0.00,weatherlink.com 1.10,2013-02-10 15:06:00,
2013-02-10 10:21:00,27.7,23.0,30.06,ESE,117,0.0,5.0,83,0.00,,,0.00,weatherlink.com 1.10,2013-02-10 15:21:00,
2013-02-10 10:36:00,28.6,24.0,30.05,East,82,0.0,3.0,82,0.00,,,0.00,weatherlink.com 1.10,2013-02-10 15:36:00,
2013-02-10 10:51:00,29.6,25.0,30.04,ENE,68,0.0,4.0,82,0.00,,,0.00,weatherlink.com 1.10,2013-02-10 15:51:00,
2013-02-10 11:06:00,30.5,25.0,30.03,ENE,76,4.0,6.0,81,0.00,,,0.00,weatherlink.com 1.10,2013-02-10 16:06:00,
2013-02-10 11:21:00,31.5,26.0,30.03,ENE,75,6.0,7.0,80,0.00,,,0.00,weatherlink.com 1.10,2013-02-10 16:21:00,
2013-02-10 11:37:00,32.1,27.0,30.02,East,89,1.0,6.0,80,0.00,,,0.00,weatherlink.com 1.10,2013-02-10 16:37:00,
2013-02-10 11:51:00,32.8,27.0,30.01,East,85,0.0,7.0,78,0.00,,,0.00,weatherlink.com 1.10,2013-02-10 16:51:00,
2013-02-10 12:07:00,33.3,27.0,30.00,East,79,4.0,5.0,78,0.00,,,0.00,weatherlink.com 1.10,2013-02-10 17:07:00,
2013-02-10 12:21:00,33.9,27.0,29.99,ENE,78,4.0,6.0,77,0.00,,,0.00,weatherlink.com 1.10,2013-02-10 17:21:00,
2013-02-10 12:36:00,34.3,28.0,29.97,ENE,63,3.0,6.0,77,0.00,,,0.00,weatherlink.com 1.10,2013-02-10 17:36:00,
2013-02-10 12:52:00,34.7,28.0,29.96,East,92,6.0,7.0,77,0.00,,,0.00,weatherlink.com 1.10,2013-02-10 17:52:00,
2013-02-10 13:07:00,35.1,28.0,29.94,East,97,4.0,6.0,76,0.00,,,0.00,weatherlink.com 1.10,2013-02-10 18:07:00,
2013-02-10 13:22:00,35.3,28.0,29.93,ESE,105,4.0,7.0,76,0.00,,,0.00,weatherlink.com 1.10,2013-02-10 18:22:00,
2013-02-10 13:37:00,35.7,29.0,29.92,East,81,4.0,6.0,76,0.00,,,0.00,weatherlink.com 1.10,2013-02-10 18:37:00,
2013-02-10 13:52:00,36.0,29.0,29.90,ENE,68,4.0,9.0,75,0.00,,,0.00,weatherlink.com 1.10,2013-02-10 18:52:00,
2013-02-10 14:07:00,36.2,29.0,29.88,East,98,0.0,7.0,76,0.00,,,0.00,weatherlink.com 1.10,2013-02-10 19:07:00,
2013-02-10 14:22:00,36.7,30.0,29.87,East,95,0.0,6.0,76,0.00,,,0.00,weatherlink.com 1.10,2013-02-10 19:22:00,
2013-02-10 14:37:00,36.8,31.0,29.86,ESE,118,0.0,5.0,79,0.00,,,0.00,weatherlink.com 1.10,2013-02-10 19:37:00,
2013-02-10 14:52:00,36.6,31.0,29.85,ENE,77,1.0,4.0,81,0.00,,,0.00,weatherlink.com 1.10,2013-02-10 19:52:00,
2013-02-10 15:07:00,36.5,32.0,29.83,East,79,0.0,5.0,82,0.00,,,0.00,weatherlink.com 1.10,2013-02-10 20:07:00,
2013-02-10 15:22:00,36.5,32.0,29.83,ENE,74,1.0,6.0,83,0.00,,,0.00,weatherlink.com 1.10,2013-02-10 20:22:00,
2013-02-10 15:37:00,36.2,32.0,29.82,East,94,3.0,5.0,83,0.00,,,0.00,weatherlink.com 1.10,2013-02-10 20:37:00,
2013-02-10 15:52:00,35.9,32.0,29.81,ENE,69,0.0,6.0,84,0.00,,,0.00,weatherlink.com 1.10,2013-02-10 20:52:00,
2013-02-10 16:07:00,35.7,31.0,29.80,SE,125,0.0,5.0,83,0.00,,,0.00,weatherlink.com 1.10,2013-02-10 21:07:00,
2013-02-10 16:22:00,36.1,31.0,29.78,East,87,0.0,6.0,83,0.00,,,0.00,weatherlink.com 1.10,2013-02-10 21:22:00,
2013-02-10 16:37:00,36.1,31.0,29.76,ENE,75,3.0,5.0,83,0.00,,,0.00,weatherlink.com 1.10,2013-02-10 21:37:00,
2013-02-10 16:52:00,36.5,32.0,29.74,East,101,3.0,7.0,82,0.00,,,0.00,weatherlink.com 1.10,2013-02-10 21:52:00,
2013-02-10 17:08:00,37.0,32.0,29.73,ESE,118,6.0,7.0,83,0.00,,,0.00,weatherlink.com 1.10,2013-02-10 22:08:00,
2013-02-10 17:23:00,37.2,33.0,29.73,ENE,61,1.0,6.0,83,0.00,,,0.00,weatherlink.com 1.10,2013-02-10 22:23:00,
2013-02-10 17:38:00,37.4,33.0,29.71,SE,138,0.0,7.0,83,0.00,,,0.00,weatherlink.com 1.10,2013-02-10 22:38:00,
2013-02-10 17:53:00,38.2,33.0,29.70,East,84,1.0,9.0,82,0.00,,,0.00,weatherlink.com 1.10,2013-02-10 22:53:00,
2013-02-10 18:08:00,39.2,35.0,29.70,NW,326,1.0,9.0,83,0.00,,,0.00,weatherlink.com 1.10,2013-02-10 23:08:00,
2013-02-10 18:23:00,39.6,35.0,29.69,ENE,68,3.0,9.0,83,0.00,,,0.00,weatherlink.com 1.10,2013-02-10 23:23:00,
2013-02-10 18:38:00,40.0,35.0,29.70,South,184,3.0,14.0,83,0.00,,,0.00,weatherlink.com 1.10,2013-02-10 23:38:00,
2013-02-10 18:53:00,40.3,36.0,29.69,South,191,2.0,14.0,83,0.00,,,0.00,weatherlink.com 1.10,2013-02-10 23:53:00,
2013-02-10 19:08:00,40.0,35.0,29.68,SW,236,3.0,15.0,83,0.00,,,0.00,weatherlink.com 1.10,2013-02-11 00:08:00,
2013-02-10 19:23:00,39.7,35.0,29.68,NE,54,1.0,14.0,82,0.00,,,0.00,weatherlink.com 1.10,2013-02-11 00:23:00,
2013-02-10 19:38:00,39.3,34.0,29.68,NE,46,1.0,14.0,81,0.01,,,0.01,weatherlink.com 1.10,2013-02-11 00:38:00,
2013-02-10 19:53:00,39.2,34.0,29.67,SSE,151,7.0,15.0,80,0.02,,,0.02,weatherlink.com 1.10,2013-02-11 00:53:00,
2013-02-10 20:23:00,39.7,33.0,29.65,SSE,159,1.0,14.0,78,0.04,,,0.04,weatherlink.com 1.10,2013-02-11 01:23:00,
2013-02-10 20:38:00,40.0,34.0,29.65,SSE,162,4.0,18.0,78,0.05,,,0.06,weatherlink.com 1.10,2013-02-11 01:38:00,
2013-02-10 20:53:00,40.1,34.0,29.65,South,174,4.0,17.0,79,0.07,,,0.09,weatherlink.com 1.10,2013-02-11 01:53:00,
2013-02-10 21:08:00,40.1,34.0,29.64,East,81,3.0,14.0,79,0.06,,,0.09,weatherlink.com 1.10,2013-02-11 02:08:00,
2013-02-10 21:23:00,40.2,34.0,29.64,SSE,159,5.0,16.0,79,0.04,,,0.09,weatherlink.com 1.10,2013-02-11 02:23:00,
2013-02-10 21:38:00,40.3,35.0,29.64,SSE,168,8.0,15.0,80,0.03,,,0.09,weatherlink.com 1.10,2013-02-11 02:38:00,
2013-02-10 21:53:00,40.2,35.0,29.63,West,277,1.0,8.0,80,0.00,,,0.09,weatherlink.com 1.10,2013-02-11 02:53:00,
2013-02-10 22:08:00,40.1,34.0,29.63,SSE,165,7.0,9.0,80,0.00,,,0.09,weatherlink.com 1.10,2013-02-11 03:08:00,
2013-02-10 22:23:00,40.5,34.0,29.62,SSE,166,4.0,9.0,79,0.00,,,0.09,weatherlink.com 1.10,2013-02-11 03:23:00,
2013-02-10 22:38:00,40.9,35.0,29.62,SSE,155,2.0,11.0,79,0.00,,,0.09,weatherlink.com 1.10,2013-02-11 03:38:00,
2013-02-10 22:53:00,41.7,36.0,29.61,SSE,159,3.0,10.0,79,0.00,,,0.09,weatherlink.com 1.10,2013-02-11 03:53:00,
2013-02-10 23:09:00,42.0,36.0,29.59,South,169,3.0,9.0,79,0.00,,,0.09,weatherlink.com 1.10,2013-02-11 04:09:00,
2013-02-10 23:23:00,41.8,36.0,29.58,South,176,3.0,11.0,79,0.00,,,0.09,weatherlink.com 1.10,2013-02-11 04:23:00,
2013-02-10 23:38:00,41.6,36.0,29.57,SSE,160,3.0,12.0,79,0.00,,,0.09,weatherlink.com 1.10,2013-02-11 04:38:00,
2013-02-10 23:54:00,41.5,35.0,29.57,SE,139,3.0,11.0,78,0.00,,,0.09,weatherlink.com 1.10,2013-02-11 04:54:00,